Погода в Щербатовке

Россия / Рязанская область     54°48′37″N   41°45′10″E
темп.,
°C
ветер,
м/с
пор.,
м/с
влажн.,
%
обл.,
%
осадки,
мм/ч
давл.,
гПа
погр.,
м
25 февраля, чт
чт2500:00−17ю4895100 0.3 1032336
03:00−16ююз5995100 0.5 1029407
06:00−15ююз61195100 1.9 1024430
09:00−12ююз71395100 4.4 1019454
12:00−8ююз61195100 3.4 1015452
15:000зюз16100100 5.3 1012236
18:00+1зсз411100100 0.3 1012372
21:00+1зсз51098100 0.4 1012347
26 февраля, пт
пт2600:00+1зсз51096100 0.0 1012358
03:00+1з4796100 0.0 1012243
06:000юз3699100 0.1 1011162
09:00+1юз47100100 1.1 1008172
12:00+2зюз612100100 1.1 1006360
15:00+2зюз513100100 1.4 1004309
18:00+2з71699100 0.7 1002521
21:00+2з6149898 0.7 1002675
27 февраля, сб
сб2700:00+1з61488100 0.1 1001684
03:00+1з7149497 0.1 1001745
06:000з7139798 0.1 999687
09:00+1з7129499 0.1 999792
12:00−5ссз61194100 0.6 1000477
15:00−7ссз7988100 0.8 1002843
18:00−9ссз51091100 0.1 1005658
21:00−11ссз51092100 0.3 1009744
28 февраля, вс
вс2800:00−13ссз51192100 0.1 1010483
03:00−15ссз4109395 0.1 1013331
06:00−17ссз499428 0.0 1014203
09:00−15ссз479225 0.0 1015335
12:00−11ссз468866 0.0 1016523
15:00−9ссз478783 0.0 1017628
18:00−10ссз3793100 0.1 1017233
21:00−13с2396100 0.1 102034
1 марта, пн
пн100:00−15с239645 0.0 102122
03:00−16ссз239622 0.0 102327
06:00−17ссз23960 0.0 102424
09:00−14ссз23951 0.0 1026114
12:00−9сз238857 0.0 1026332
15:00−6зсз348978 0.1 1026478
18:00−6зюз3595100 0.1 1025162
21:00−5зюз3795100 0.1 1024277